This demonstration page uses our WeatherBlox Daily Observations layout. Learn more.

Left ArrowRight Arrow

39.08367, -84.50855

Hourly Observations for January 7, 2021

Temp ( °F °C ) Dew Point ( °F °C ) Humidity (%) Winds ( mph kmh ) Pressure ( in mb ) Visibility ( mi km ) Precip ( " mm )
12:53 am 00:53 Cloudy 35 1.7 28 -2.2 76 76 NNE 3 6 30.32 1027 10 16.0934 0 0
1:53 am 01:53 Cloudy 35 1.7 28 -2.2 76 76 Calm 30.32 1027 10 16.0934 0 0
2:53 am 02:53 Cloudy 35 1.7 29 -1.7 78 78 NE 3 6 30.32 1027 10 16.0934 0 0
3:53 am 03:53 Cloudy 35 1.7 30 -1.1 82 82 ENE 3 6 30.32 1027 10 16.0934 0 0
4:53 am 04:53 Cloudy 35 1.7 30 -1.1 82 82 NE 5 7 30.31 1026 10 16.0934 0 0
5:53 am 05:53 Cloudy 35 1.7 30 -1.1 82 82 NE 6 9 30.3 1026 10 16.0934 0 0
6:53 am 06:53 Cloudy 34 1.1 30 -1.1 85 85 NE 5 7 30.31 1027 10 16.0934 0 0
7:53 am 07:53 Cloudy 34 1.1 30 -1.1 85 85 NE 6 9 30.3 1026 10 16.0934 0 0
8:53 am 08:53 Cloudy 36 2.2 30 -1.1 79 79 NE 6 9 30.32 1027 10 16.0934 0 0
9:53 am 09:53 Cloudy 37 2.8 30 -1.1 76 76 NE 6 9 30.33 1027 10 16.0934 0 0
10:53 am 10:53 Cloudy 39 3.9 25 -3.9 57 57 ENE 14 22 30.32 1027 10 16.0934 0 0
11:53 am 11:53 Cloudy 39 3.9 25 -3.9 57 57 ENE 13 20 30.28 1026 10 16.0934 0 0
12:53 pm 12:53 Cloudy 39 3.9 25 -3.9 57 57 ENE 8 13 30.26 1025 10 16.0934 0 0
1:53 pm 13:53 Cloudy 40 4.4 24 -4.4 53 53 NE 14 22 30.23 1024 10 16.0934 0 0
2:53 pm 14:53 Cloudy 39 3.9 24 -4.4 55 55 NE 17 28 30.22 1023 10 16.0934 0 0
3:53 pm 15:53 Cloudy 38 3.3 25 -3.9 60 60 NE 14 22 30.23 1024 10 16.0934 0 0
4:53 pm 16:53 Cloudy 38 3.3 25 -3.9 60 60 NE 10 17 30.23 1024 10 16.0934 0 0
5:53 pm 17:53 Cloudy 37 2.8 24 -4.4 59 59 NE 12 19 30.21 1023 10 16.0934 0 0
6:53 pm 18:53 Cloudy 36 2.2 24 -4.4 62 62 NE 9 15 30.2 1023 10 16.0934 0 0
7:53 pm 19:53 Mostly Cloudy 36 2.2 23 -5 59 59 ENE 17 28 30.21 1023 10 16.0934 0 0
8:53 pm 20:53 Cloudy 35 1.7 24 -4.4 64 64 ENE 7 11 30.22 1023 10 16.0934 0 0
9:53 pm 21:53 Cloudy 35 1.7 25 -3.9 67 67 NE 6 9 30.21 1023 10 16.0934 0 0
10:53 pm 22:53 Cloudy 36 2.2 26 -3.3 67 67 NNE 7 11 30.21 1023 10 16.0934 0 0
11:17 pm 23:17 Cloudy 35 1.7 26 -3.3 70 70 NNE 8 13 30.22 1024 10 16.0934 0 0
11:53 pm 23:53 Cloudy 35 1.7 27 -2.8 72 72 NNE 10 17 30.19 1023 10 16.0934 0 0

Powered by AerisWeather